DW9677 Weather Reports


Display with metric or nautical units.
time (UTC)temp
F
wind
direction
speed
MPH
gust
MPH
rain 1hr
in
rain 24hr
in
rain mn
in
humidity
%
barometer
mb
20210121081610 32 46 0.0 0.0 0.00 0.17 0.00 92 1007.0
20210121080103 31 46 0.0 0.0 0.00 0.17 0.00 92 1006.9
20210121073131 30 45 0.0 0.0 0.00 0.17 0.00 92 1006.8
20210121071643 29 46 0.0 0.0 0.00 0.17 0.00 92 1007.0
20210121070049 28 46 0.0 0.0 0.00 0.17 0.00 92 1006.9
20210121064553 28 46 0.0 0.0 0.00 0.17 0.00 92 1006.9
20210121063043 27 45 0.0 0.0 0.00 0.17 0.00 92 1006.8
20210121061559 27 46 0.0 0.0 0.00 0.17 0.00 92 1006.7
20210121060057 27 46 0.0 0.0 0.00 0.17 0.00 92 1006.8
20210121054713 27 46 0.0 0.0 0.00 0.17 0.00 92 1006.7
20210121053035 27 46 0.0 1.0 0.00 0.17 0.00 92 1006.7
20210121051607 26 46 0.0 0.0 0.00 0.17 0.00 92 1006.6
20210121050056 26 45 0.0 0.0 0.00 0.17 0.00 92 1006.6
20210121044548 26 46 0.0 0.0 0.00 0.17 0.00 92 1006.6
20210121043100 26 46 0.0 0.0 0.00 0.17 0.00 92 1006.5
20210121041634 26 46 0.0 0.0 0.00 0.17 0.00 92 1006.5
20210121040049 27 46 0.0 0.0 0.00 0.17 0.00 92 1006.5
20210121034550 27 46 0.0 0.0 0.00 0.17 0.00 92 1006.3
20210121033108 27 46 0.0 0.0 0.00 0.17 0.00 92 1006.2
20210121031649 27 46 0.0 0.0 0.00 0.17 0.00 92 1006.2
20210121030040 27 46 0.0 0.0 0.00 0.17 0.00 92 1006.3
20210121023136 27 46 0.0 0.0 0.00 0.17 0.00 92 1006.4
20210121020021 26 46 0.0 0.0 0.00 0.17 0.00 92 1006.4
20210121014520 26 46 0.0 0.0 0.00 0.17 0.00 92 1006.3
20210121013038 25 46 0.0 1.0 0.00 0.17 0.00 92 1006.2
20210121011735 24 46 0.0 1.0 0.00 0.17 0.00 92 1006.6
20210121011519 24 45 0.0 1.0 0.00 0.17 0.00 92 1006.6
20210121010254 24 46 0.0 0.0 0.00 0.17 0.00 92 1006.6
20210121004711 24 46 0.0 0.0 0.00 0.17 0.00 92 1006.8
20210121003058 23 46 0.0 0.0 0.00 0.17 0.00 92 1006.8
20210121001716 23 46 0.0 0.0 0.00 0.17 0.00 92 1006.9
20210121000115 23 46 0.0 0.0 0.00 0.17 0.00 92 1007.2
20210120234624 23 46 0.0 0.0 0.00 0.17 0.00 92 1007.4
20210120233132 23 45 0.0 0.0 0.00 0.17 0.00 92 1007.4
20210120231620 23 46 0.0 0.0 0.00 0.17 0.00 92 1007.5
20210120230136 23 46 0.0 0.0 0.00 0.17 0.00 92 1007.6
20210120224558 23 45 0.0 0.0 0.00 0.18 0.17 92 1007.8
20210120223131 23 46 0.0 0.0 0.00 0.18 0.17 92 1007.8
20210120221607 23 45 0.0 0.0 0.00 0.18 0.17 92 1007.8
20210120220142 23 46 0.0 0.0 0.00 0.18 0.17 92 1007.7
20210120214631 24 46 0.0 0.0 0.00 0.20 0.17 92 1007.6
20210120213114 24 46 0.0 0.0 0.00 0.20 0.17 92 1007.7
20210120211604 24 45 0.0 0.0 0.00 0.20 0.17 92 1007.8
20210120210126 24 46 0.0 0.0 0.00 0.20 0.17 92 1007.7
20210120204600 24 46 0.0 0.0 0.00 0.23 0.17 92 1007.8
20210120203059 24 46 0.0 0.0 0.00 0.23 0.17 92 1007.8
20210120201549 24 46 0.0 0.0 0.00 0.23 0.17 92 1007.9
20210120200121 24 46 0.0 1.0 0.00 0.23 0.17 92 1008.0
20210120194605 25 46 0.0 0.0 0.00 0.28 0.17 92 1008.2
20210120193032 25 45 0.0 0.0 0.00 0.28 0.17 92 1008.4
20210120191603 25 45 0.0 0.0 0.00 0.28 0.17 92 1008.5
20210120190111 26 46 0.0 0.0 0.00 0.28 0.17 92 1008.7
20210120184551 26 46 0.0 0.0 0.00 0.35 0.17 92 1008.6
20210120183059 27 46 0.0 0.0 0.00 0.35 0.17 92 1008.6
20210120181628 27 45 0.0 0.0 0.00 0.35 0.17 92 1008.7
20210120180047 27 46 0.0 0.0 0.00 0.35 0.17 92 1008.8
20210120174630 28 46 0.0 0.0 0.00 0.40 0.17 92 1009.0
20210120173037 28 46 0.0 0.0 0.00 0.40 0.17 91 1009.0
20210120171543 29 46 0.0 0.0 0.00 0.40 0.17 91 1009.1
20210120170116 29 46 0.0 0.0 0.00 0.40 0.17 91 1009.2
20210120164527 30 46 0.0 0.0 0.00 0.43 0.17 91 1009.1
20210120163033 31 45 0.0 1.0 0.00 0.43 0.17 90 1009.2
20210120161532 32 45 0.0 0.0 0.00 0.43 0.17 88 1009.2
20210120160057 33 45 0.0 1.0 0.00 0.43 0.17 88 1009.3
20210120154550 35 45 0.0 0.0 0.00 0.46 0.17 86 1009.4
20210120153023 37 45 0.0 0.0 0.01 0.46 0.17 84 1009.5
20210120151533 39 45 0.0 0.0 0.01 0.46 0.17 82 1009.6
20210120150025 40 45 0.0 0.0 0.02 0.46 0.17 81 1009.7
20210120144523 41 46 0.0 0.0 0.03 0.50 0.17 77 1009.5
20210120143020 43 46 0.0 0.0 0.02 0.49 0.16 74 1009.7
20210120140025 46 46 0.0 1.0 0.03 0.48 0.15 68 1010.0
20210120134504 46 46 0.0 0.0 0.03 0.54 0.14 71 1010.2
20210120133212 47 45 0.0 0.0 0.05 0.54 0.14 65 1010.4
20210120131718 47 45 0.0 0.0 0.05 0.53 0.13 64 1010.6
20210120130109 48 45 0.0 0.0 0.05 0.52 0.12 64 1010.8
20210120124639 48 45 0.0 0.0 0.06 0.61 0.11 65 1010.9
20210120123150 48 46 0.0 0.0 0.06 0.59 0.09 64 1011.2
20210120121613 47 45 0.0 0.0 0.06 0.57 0.08 66 1011.5
20210120120122 47 46 0.0 0.0 0.05 0.56 0.06 68 1011.8
20210120114645 47 45 0.0 0.0 0.05 0.56 0.05 68 1012.0
20210120113044 47 45 0.0 0.0 0.03 0.55 0.03 70 1012.3
20210120111644 46 46 0.0 0.0 0.02 0.54 0.02 72 1012.5
20210120110225 45 46 0.0 0.0 0.01 0.53 0.01 72 1012.9
20210120104536 42 46 0.0 1.0 0.00 0.52 0.00 78 1013.1
20210120103105 41 45 0.0 0.0 0.00 0.52 0.00 84 1013.4
20210120101608 39 46 0.0 0.0 0.00 0.52 0.00 91 1013.7
20210120100041 36 46 0.0 0.0 0.00 0.52 0.00 92 1014.1
20210120094527 33 45 0.0 0.0 0.00 0.52 0.00 91 1014.4
20210120093025 32 46 0.0 0.0 0.00 0.52 0.00 91 1014.6
20210120091521 30 45 0.0 1.0 0.00 0.52 0.00 91 1014.7
20210120090021 28 45 0.0 1.0 0.00 0.52 0.00 91 1014.8
20210120084516 26 46 0.0 0.0 0.00 0.52 0.00 91 1014.9